Weather History for KSLE - May, 2013

Change the Weather History Date:

Wednesday, May 22, 2013

  Actual Average Record
Temperature  
Mean Temperature 48 °F 58 °F  
Max Temperature 53 °F 69 °F 93 °F (2001)
Min Temperature 42 °F 46 °F 31 °F (1960)
Degree Days  
Heating Degree Days 17 8  
Month to date heating degree days 135 216  
Since 1 July heating degree days 4124 4459  
Cooling Degree Days 0 0  
Month to date cooling degree days 10 0  
Year to date cooling degree days 10 0  
Moisture  
Dew Point 43 °F    
Average Humidity 88    
Maximum Humidity 93    
Minimum Humidity 83    
Precipitation  
Precipitation 0.14 in 0.07 in 0.68 in (1942)
Month to date precipitation 1.31 1.55  
Year to date precipitation 8.96 18.87  
Snow  
Snow 0.00 in - - ()
Month to date snowfall 0.0  
Snow Depth 0.00 in    
Sea Level Pressure  
Sea Level Pressure 29.98 in    
Wind  
Wind Speed 12 mph (South)    
Max Wind Speed 18 mph    
Max Gust Speed 25 mph    
Visibility 9 miles    
Events Rain    
T = Trace of Precipitation, MM = Missing Value Source: NWS Daily Summary

Daily Weather History Graph

Daily Weather History Graph

Search for Another Location

Airport or City:

Trip Planner

Search our weather history database for the weather conditions in past years. The results will help you decide how hot, cold, wet, or windy it might be!

Date:

Astronomy

May. 22, 2013 Rise Set
Actual Time 5:35 AM PDT 8:42 PM PDT
Civil Twilight 5:00 AM PDT 9:17 PM PDT
Nautical Twilight 4:15 AM PDT 10:02 PM PDT
Astronomical Twilight 3:21 AM PDT 10:57 PM PDT
Moon 6:05 PM PDT (5/22) 3:50 AM PDT (5/22)
Length of Visible Light 16h 16m
Length of Day
15h 06m
Waxing Gibbous, 92% of the Moon is Illuminated
May 22
Waxing Gibbous
May 24
Full
May 31
Last Quarter
Jun 8
New
Jun 16
First Quarter

Hourly Weather History & Observations

Time (PDT) Temp. Windchill Dew Point Humidity Pressure Visibility Wind Dir Wind Speed Gust Speed Precip Events Conditions
12:56 AM 42.1 °F 36.6 °F 39.0 °F 89% 30.01 in 10.0 mi South 9.2 mph - 0.00 in   Partly Cloudy
1:56 AM 43.0 °F 35.7 °F 39.9 °F 89% 30.00 in 10.0 mi South 15.0 mph - 0.00 in Rain Light Rain
2:56 AM 43.0 °F 37.2 °F 41.0 °F 93% 30.00 in 10.0 mi South 10.4 mph - 0.00 in Rain Light Rain
3:56 AM 43.0 °F 36.4 °F 39.9 °F 89% 30.00 in 10.0 mi South 12.7 mph - 0.01 in   Overcast
4:56 AM 42.1 °F 35.7 °F 39.9 °F 92% 29.99 in 10.0 mi South 11.5 mph - N/A   Overcast
5:56 AM 42.1 °F 35.2 °F 39.0 °F 89% 29.98 in 10.0 mi South 12.7 mph - N/A   Overcast
6:34 AM 42.8 °F 36.2 °F 39.2 °F 87% 29.97 in 10.0 mi South 12.7 mph - 0.00 in Rain Light Rain
6:56 AM 42.1 °F 35.2 °F 39.9 °F 92% 29.98 in 10.0 mi South 12.7 mph - 0.00 in   Overcast
7:56 AM 42.1 °F 35.2 °F 39.9 °F 92% 29.98 in 10.0 mi South 12.7 mph - 0.00 in Rain Light Rain
8:56 AM 44.1 °F 38.6 °F 42.1 °F 93% 29.97 in 10.0 mi South 10.4 mph 20.7 mph 0.01 in Rain Light Rain
9:56 AM 45.0 °F 38.2 °F 42.1 °F 90% 29.97 in 10.0 mi South 15.0 mph - 0.01 in Rain Light Rain
10:56 AM 45.0 °F 37.9 °F 42.1 °F 90% 29.97 in 10.0 mi SSE 16.1 mph - 0.00 in   Overcast
11:56 AM 46.0 °F 40.6 °F 43.0 °F 89% 29.96 in 10.0 mi SSE 11.5 mph - 0.01 in Rain Light Rain
12:56 PM 48.0 °F - 45.0 °F 89% 29.96 in 7.0 mi South 12.7 mph - 0.01 in Rain Light Rain
1:56 PM 50.0 °F - 46.0 °F 86% 29.96 in 7.0 mi SSE 16.1 mph 20.7 mph 0.00 in   Overcast
2:56 PM 51.1 °F - 46.0 °F 83% 29.95 in 10.0 mi South 13.8 mph - 0.00 in   Overcast
3:56 PM 48.9 °F - 46.9 °F 93% 29.96 in 6.0 mi South 9.2 mph - 0.04 in Rain Light Rain
4:56 PM 50.0 °F - 48.0 °F 93% 29.96 in 6.0 mi South 12.7 mph - 0.01 in Rain Light Rain
5:56 PM 50.0 °F - 46.0 °F 86% 29.96 in 7.0 mi SSW 11.5 mph 18.4 mph 0.02 in Rain Light Rain
6:56 PM 50.0 °F - 46.0 °F 86% 29.96 in 7.0 mi South 11.5 mph - 0.02 in   Overcast
7:03 PM 50.0 °F - 46.4 °F 87% 29.96 in 10.0 mi South 11.5 mph - N/A   Overcast
7:56 PM 48.9 °F - 45.0 °F 86% 29.98 in 10.0 mi South 10.4 mph - 0.00 in   Overcast
8:56 PM 48.0 °F - 45.0 °F 89% 29.98 in 10.0 mi South 11.5 mph - 0.00 in   Overcast
9:56 PM 48.0 °F - 46.0 °F 93% 29.99 in 10.0 mi South 10.4 mph - 0.00 in   Overcast
10:56 PM 48.0 °F - 45.0 °F 89% 29.99 in 10.0 mi South 11.5 mph - 0.00 in Rain Light Rain
11:56 PM 46.9 °F - 45.0 °F 93% 29.99 in 10.0 mi South 10.4 mph - 0.03 in Rain Light Rain